SBSTSBFL

Guest
Details From SBST - BASE AEREA DE SANTOS
To SBFL - Hercillo Luz
Flight Number -
Tags decoded
Created
Modified
Stats Distance 8,449 nm / 15,648 km
Max Altitude 0 ft / 0 m
Waypoints 3
Social Downloads 0
Likes 0
Share VATSIM

Download

Looking for another format? Having issues loading an existing format? Contact us
Advertisement - Login to hide

Notes

Requested: SBST COBRA INGOT NVG ONIX SBFL Unmatched points: ONIX

Route

SBST INGOT SBFL

ID Type Via Altitude Latitude Longitude Leg Dist Tot Dist Heading (true) Name
O SBST APT - 0 ft / 0 m -23.92520˚ -46.28750˚ - 0 nm - BASE AEREA DE SANTOS
INGOT FIX - 0 ft / 0 m 29.87430˚ -92.25543˚ 4178 nm 4178 nm 318° / 315° -
O SBFL APT - 0 ft / 0 m -27.67049˚ -48.54718˚ 4270 nm 8449 nm 140° / 141° Hercillo Luz

Altitude Profile

Advertisement - Login to hide

Weather


0- 5 10 15 20 25 30 35+ Temperature / ° C

Clouds and Precipitation
Forecast for 2018-05-21 18:00 UTC. Updated 6 hours ago

Ground ~20,000 ft ~40,000 ft Winds

SBST

Details ICAO SBST (SSZ)
Name BASE AEREA DE SANTOS
Region Brazil
Timezone America/Sao_Paulo (UTC-3.0)
Stats Elevation 10 ft / 3 m (AMSL)
Location -23.925204° -46.287498°
Runways 1
Magnetic Variation 21.457° W

METAR

SBST 212200Z VRB01KT 1500 BR OVC034 17/15 Q1018

Decode

TAF

Not found

Departure Runways

ID Width Length Bearing (true) Bearing (mag) Surface Threshold Offset Overrun Length
17 148 ft / 45 m 4,574 ft / 1,394 m 148.78° 170.24° Asphalt 0 ft / 0 m 0 ft / 0 m
35 148 ft / 45 m 4,574 ft / 1,394 m 328.78° 350.24° Asphalt 0 ft / 0 m 0 ft / 0 m

SBFL

Details ICAO SBFL (FLN)
Name Hercillo Luz
Region Brazil
Timezone America/Sao_Paulo (UTC-3.0)
Stats Elevation 19 ft / 6 m (AMSL)
Location -27.670487° -48.547180°
Runways 2
Magnetic Variation 19.380° W

METAR

SBFL 212300Z 19003KT CAVOK 16/12 Q1018

Decode

TAF

TAF SBFL 211415Z 2118/2218 31003KT CAVOK TX21/2118Z TN15/2208Z BECMG 2123/2201 36004KT BECMG 2203/2205 28006KT PROB40 2206/2210 4000 BR NSC RMK PDV

Decode

Destination Runways

ID Width Length Bearing (true) Bearing (mag) Surface Threshold Offset Overrun Length
03 148 ft / 45 m 4,939 ft / 1,505 m 11.55° 30.93° Concrete 0 ft / 0 m 0 ft / 0 m
14 148 ft / 45 m 7,543 ft / 2,299 m 121.30° 140.68° Asphalt 720 ft / 219 m 0 ft / 0 m
21 148 ft / 45 m 4,939 ft / 1,505 m 191.55° 210.93° Concrete 0 ft / 0 m 0 ft / 0 m
32 148 ft / 45 m 7,543 ft / 2,299 m 301.29° 320.67° Asphalt 0 ft / 0 m 200 ft / 61 m

Approach Navaids

Runway Type Ident Frequency Range Bearing (true) Bearing (mag) Slope Elevation
14 Localiser IFL 110.30 MHz 18 nm / 33 km 121.67° 141.05° - 19 ft / 6 m (AMSL)
14 Glidescope IFL 110.30 MHz 10 nm / 19 km 121.29° 140.67° 3.00° 19 ft / 6 m (AMSL)

Popular Alternatives